Wind_Speed
3 5 9 10 9 7 5 6 7 1 2 8 12 19 14 20 17 13 11 9 11 14 17 18 17 19 20 25 28 35 31 39 36 34 33 31 34 29 31 33 39 45 43 40
4 11 6 5 9 10 10 11 14 8 4 4 7 25 20 16 17 15 12 10 9 8 12 14 14 17 17 25 32 32 36 32 37 35 34 29 26 29 31 32 39 41 40 40
11 4 2 11 8 9 11 15 11 11 5 6 9 18 19 3 6 6 4 8 9 8 10 11 15 18 20 19 24 28 32 33 33 32 24 24 22 23 25 35 37 40 41 44
6 4 6 3 2 7 9 7 11 7 3 7 1 12 20 13 11 1 5 6 5 10 10 10 14 18 22 24 23 18 24 26 29 30 31 32 31 29 36 30 32 33 36 42
3 3 3 4 6 11 6 2 6 6 4 5 6 6 11 4 15 14 4 6 11 11 11 14 14 16 19 27 28 26 16 19 28 30 36 33 34 37 32 30 32 34 36 40
2 2 1 3 2 5 2 4 2 1 4 8 10 8 27 11 9 2 6 12 13 14 15 15 19 20 19 24 29 28 25 18 17 29 33 38 38 37 32 34 32 33 34 36
1 1 1 1 3 1 2 3 2 4 5 7 7 11 19 6 13 6 10 11 12 13 13 14 18 21 22 23 24 26 25 26 20 18 29 35 41 39 39 38 34 32 31 35
5 3 1 1 7 5 6 8 4 6 5 3 2 11 6 3 11 9 10 9 14 18 16 17 16 19 23 24 25 25 25 25 30 24 24 31 37 37 38 39 39 36 36 36
2 3 3 4 2 1 4 5 3 3 1 5 6 13 19 18 5 11 11 14 17 18 19 18 19 20 20 26 27 26 28 26 27 30 29 31 34 37 40 41 39 39 36 34
2 1 3 3 0 7 2 2 3 1 4 5 4 9 12 7 9 11 14 15 18 20 21 19 17 21 19 21 24 26 27 26 28 30 30 30 35 38 41 40 40 38 36 33
5 2 1 2 3 3 4 1 1 1 3 3 5 8 2 8 7 11 13 15 17 20 20 18 18 24 23 22 22 22 25 26 27 29 29 29 33 35 36 38 38 37 33 34
4 2 1 2 7 3 3 3 2 4 4 2 3 13 7 6 7 15 16 18 18 19 19 18 19 21 21 22 24 24 23 26 29 30 31 29 31 26 27 30 33 33 31 35
3 1 1 2 1 2 2 2 2 5 1 6 6 12 5 15 21 21 22 21 18 18 19 18 16 15 20 22 23 25 25 27 28 32 33 31 26 19 23 29 29 29 32 34
4 3 5 6 2 2 5 3 4 3 3 6 13 25 32 18 22 24 25 22 19 17 18 17 15 15 18 19 21 24 26 27 28 31 33 33 28 24 25 26 28 34 33 36
1 3 5 6 8 11 14 15 16 14 12 12 16 25 30 25 26 26 24 22 20 17 18 17 17 16 19 21 22 25 26 27 29 30 30 33 33 28 23 25 29 35 36 38
5 2 3 11 13 17 20 17 18 21 22 26 25 31 26 32 24 23 22 21 21 20 19 20 20 16 15 20 24 24 25 26 27 28 29 30 30 25 18 21 27 28 28 29
2 2 4 5 3 11 15 22 23 18 21 22 22 28 27 25 24 23 23 20 22 23 22 21 20 13 17 25 25 27 26 26 25 25 28 27 26 25 18 17 19 22 24 27
7 7 2 4 7 7 2 3 4 13 19 20 23 26 26 25 24 25 22 21 21 20 20 18 11 19 26 30 28 27 26 25 24 26 26 25 22 23 21 17 19 20 23 27
15 9 4 3 6 16 18 9 6 9 18 18 23 22 23 23 23 24 18 14 17 17 17 16 25 27 26 27 30 27 26 27 23 25 27 26 24 20 22 20 20 24 23 22
11 12 6 4 5 7 3 2 8 7 14 10 12 14 15 16 13 18 19 16 20 26 26 27 30 28 27 27 28 25 26 25 26 27 28 29 26 24 21 26 28 25 23 22
5 4 12 11 8 12 7 6 2 10 13 8 4 12 19 18 17 23 24 26 25 25 29 29 30 27 28 27 26 24 27 26 28 28 29 30 30 26 27 27 27 25 31 25
7 6 5 6 6 13 8 5 7 7 6 14 21 21 20 20 21 24 24 23 24 24 28 30 26 27 30 26 22 25 27 28 28 27 30 32 30 28 24 27 24 25 30 30
4 6 4 9 5 8 7 11 14 16 17 22 21 24 21 20 22 23 24 22 22 24 27 27 25 26 31 27 22 25 30 27 29 28 30 30 27 27 22 26 25 25 25 25
5 7 8 7 13 24 22 20 20 20 22 22 19 20 22 21 24 24 22 20 19 22 23 28 26 25 27 28 26 24 29 26 24 26 27 26 22 21 21 23 26 28 28 23
9 4 12 17 19 21 21 17 18 21 19 21 22 21 23 21 24 22 22 21 19 21 27 25 24 23 28 28 27 25 25 21 22 22 24 22 19 19 20 20 24 27 31 40
11 12 7 11 15 15 23 20 19 22 24 22 21 22 22 20 21 23 22 21 21 19 27 24 24 25 27 25 22 23 19 17 19 20 18 17 13 13 12 16 13 13 19 25
Wind_Direction
160 206 214 190 207 235 265 264 274 236 258 314 282 279 269 287 293 284 273 249 257 262 275 283 283 279 260 239 231 228 224 225 218 215 215 220 222 227 232 231 232 236 233 230
192 239 215 176 207 227 242 262 263 276 232 210 302 293 282 257 271 277 284 287 268 283 294 308 328 322 289 257 240 230 227 223 221 218 220 222 229 233 232 231 234 234 232 231
204 169 112 204 196 211 232 231 237 252 310 276 278 278 285 251 255 291 291 282 288 283 317 337 350 344 342 314 268 241 234 228 223 222 223 224 230 232 234 230 233 231 229 231
237 226 236 241 144 191 250 226 235 236 244 259 24 283 275 291 271 276 309 264 321 356 9 1 2 359 354 350 358 288 252 238 229 219 218 219 222 227 231 233 232 230 229 229
174 142 106 212 236 202 255 78 171 165 206 286 217 258 287 248 286 299 278 38 21 18 15 6 4 4 356 354 356 352 320 253 234 221 221 223 227 234 236 233 233 226 225 226
105 107 109 185 158 149 85 92 92 170 224 249 219 216 275 272 285 14 57 38 20 11 13 9 4 359 354 353 353 348 338 322 256 231 227 225 230 232 232 231 230 228 224 222
16 169 180 186 230 120 153 109 171 210 204 266 188 213 257 286 333 4 65 37 26 17 10 1 358 354 352 343 336 337 333 324 315 255 238 233 234 235 235 237 234 229 225 222
176 138 7 121 222 208 187 204 204 239 222 269 201 244 253 118 101 87 58 37 26 15 1 350 351 346 344 340 335 326 323 313 315 297 268 252 245 241 240 240 237 235 231 227
129 112 314 35 2 182 150 176 186 243 228 271 233 263 277 269 342 44 32 21 10 2 352 340 336 337 336 338 334 327 320 314 309 303 293 277 262 249 243 241 239 237 235 233
20 174 16 329 169 43 73 124 139 128 234 238 248 259 244 288 53 30 12 1 354 346 341 334 331 329 327 332 331 331 326 319 312 307 298 285 273 261 250 243 238 234 231 227
12 30 327 301 43 54 359 54 75 216 195 254 288 257 202 122 75 13 347 344 340 335 328 323 321 326 326 330 333 334 332 330 326 320 305 295 283 265 250 242 240 235 227 216
12 58 312 280 298 323 235 256 209 221 225 239 273 268 103 134 331 338 332 331 327 317 315 312 311 311 318 325 328 330 333 333 329 324 318 306 297 272 247 242 240 237 218 213
16 79 109 253 172 65 99 138 110 96 61 227 244 259 190 314 327 323 316 318 313 308 309 306 302 304 315 320 325 328 331 331 331 328 324 317 308 265 246 242 238 233 211 209
181 184 213 240 317 9 274 265 287 257 237 275 244 284 278 294 301 299 301 301 308 303 302 301 298 302 309 315 322 327 329 330 332 333 326 319 317 291 253 242 228 218 213 211
126 244 222 243 283 284 270 265 272 256 252 249 270 269 282 292 288 288 298 303 303 305 306 298 297 304 309 318 324 326 327 327 330 333 333 323 317 307 281 231 218 213 211 205
11 283 291 280 268 255 259 258 247 243 249 257 262 266 273 276 284 289 291 297 305 304 298 294 288 297 307 316 317 319 321 322 325 328 332 332 318 304 290 248 207 203 193 189
273 264 289 278 283 306 281 241 233 241 238 241 253 256 269 281 289 290 293 303 298 296 299 294 292 285 304 317 309 309 315 315 317 321 329 332 325 304 283 251 217 192 183 181
215 207 231 283 296 256 308 70 191 225 239 239 246 256 265 277 287 288 291 296 291 295 297 296 291 298 304 309 297 303 308 308 310 313 319 323 323 306 268 235 211 194 189 184
211 203 235 254 237 283 283 269 179 216 259 244 244 261 276 282 289 287 291 278 280 294 296 292 300 299 296 296 291 297 303 304 305 306 311 313 311 299 260 217 202 190 185 185
195 214 211 193 250 264 111 201 262 255 277 278 263 257 273 299 292 288 306 309 307 301 289 298 301 296 292 290 290 292 297 300 299 306 304 305 301 295 256 221 203 191 200 198
160 198 222 236 251 268 277 273 341 265 280 291 282 305 307 297 283 290 300 305 307 297 294 295 298 292 290 290 288 284 293 293 296 299 299 299 295 284 270 241 221 199 189 183
197 183 206 220 240 265 235 277 217 254 270 299 312 301 299 291 287 288 292 297 301 299 297 295 292 290 292 292 287 284 289 293 298 298 298 294 293 291 264 221 202 192 180 176
236 212 215 214 224 262 255 268 280 291 289 296 300 297 297 294 290 289 292 293 296 295 293 293 290 290 289 292 285 285 285 296 300 297 295 293 298 291 254 210 189 179 179 168
236 235 241 268 246 264 279 290 291 288 290 291 287 289 294 291 290 288 288 292 290 289 287 289 285 285 286 292 291 284 288 298 296 292 289 291 294 284 236 203 190 178 174 168
236 229 254 264 275 278 271 275 285 293 294 288 290 289 286 288 287 285 287 288 286 284 286 284 280 279 280 290 293 294 299 300 293 292 288 290 283 261 214 196 189 185 186 176
223 242 230 260 271 276 285 292 293 295 295 294 294 296 290 290 287 291 289 287 283 282 284 282 279 279 283 292 295 303 304 302 297 294 291 283 259 221 195 173 156 190 186 179
Height
785 794 794 795 792 792 796 799 800 799 792 793 788 781 779 770 767 768 766 770 768 764 756 754 754 755 757 756 756 755 758 757 764 768 771 774 773 780 782 783 783 785 788 792
791 790 788 789 792 793 795 800 799 796 792 792 789 776 769 770 763 760 761 761 762 760 756 754 755 754 752 751 748 748 748 752 754 758 762 767 771 771 773 775 775 777 781 784
783 786 783 788 791 794 794 797 796 799 793 788 789 773 758 764 764 759 762 760 758 756 758 756 755 753 750 747 747 745 744 747 748 754 760 763 766 765 766 763 765 766 772 774
786 783 787 791 790 791 800 789 791 796 803 802 789 784 759 758 760 763 761 756 757 758 759 760 757 753 750 748 744 743 742 744 744 746 750 752 752 754 749 757 758 760 763 766
785 786 788 790 788 787 792 787 790 792 798 802 794 804 749 760 759 756 758 760 762 761 760 759 758 754 751 746 744 741 739 739 739 739 740 742 744 741 743 747 748 748 750 754
784 783 784 786 785 786 789 791 794 795 798 806 790 797 736 757 756 762 760 766 764 764 760 760 760 757 753 748 744 740 737 734 734 735 734 734 732 732 735 734 735 737 740 742
789 788 785 787 791 787 792 796 808 814 815 800 781 789 750 750 752 759 768 767 767 764 762 761 757 754 753 749 744 741 737 732 730 729 728 727 724 724 724 726 727 728 730 729
796 800 792 788 789 791 792 796 806 812 804 797 792 783 756 754 758 763 768 769 764 760 760 758 756 755 751 748 744 740 737 733 727 724 722 719 718 716 714 716 716 716 717 718
799 801 795 789 787 788 795 797 792 804 813 808 788 768 752 747 761 767 768 765 764 762 761 757 755 751 750 746 741 738 735 731 726 720 716 711 709 707 703 703 705 706 708 712
804 804 800 794 789 789 789 792 803 808 815 810 786 781 763 756 769 771 769 766 763 761 758 755 752 750 747 745 740 735 732 728 722 716 711 706 701 696 694 695 693 696 699 703
810 807 804 799 798 803 800 800 802 802 806 806 799 768 759 766 773 773 770 767 765 762 757 754 749 744 743 740 737 733 729 725 720 713 705 699 692 688 686 685 686 688 690 691
819 818 814 812 803 808 805 805 805 808 809 812 809 771 762 769 769 768 768 765 764 762 756 752 748 744 740 737 734 729 724 719 714 708 700 691 683 678 677 677 679 681 682 682
821 824 822 808 808 807 808 807 807 816 825 812 807 766 756 758 763 761 760 761 761 758 754 749 744 740 737 734 729 726 721 715 708 701 693 684 678 672 670 668 670 673 676 678
822 825 818 811 809 815 813 812 813 813 818 807 797 780 751 772 769 760 756 754 756 755 750 745 741 737 733 730 727 722 717 711 704 696 690 681 673 668 663 662 662 665 669 672
823 824 821 819 819 817 816 815 811 812 810 808 794 786 758 766 763 755 753 752 752 750 747 742 737 733 730 726 722 718 713 708 702 694 687 682 672 665 660 656 656 658 661 665
828 827 824 821 817 814 810 809 807 802 799 795 791 776 769 752 755 754 750 750 748 744 740 736 731 729 726 723 718 714 709 703 699 693 686 679 673 666 662 658 652 655 656 660
832 829 827 819 811 810 806 791 792 792 791 789 789 770 754 752 750 750 744 746 743 737 734 730 727 724 722 717 713 708 703 698 695 690 683 677 671 667 662 661 658 654 657 659
825 827 832 826 818 819 778 779 779 784 778 775 772 760 755 752 747 741 741 742 736 733 728 725 723 721 717 713 708 703 699 695 690 685 679 674 668 664 661 659 657 657 658 659
819 823 826 824 815 787 777 771 774 775 761 763 760 757 754 750 747 735 735 735 731 728 725 722 720 717 712 708 702 697 693 689 685 679 674 669 665 660 657 654 655 652 656 660
818 820 821 820 816 800 769 770 766 766 762 755 755 754 752 749 750 728 726 729 729 725 721 717 713 709 705 699 695 691 685 681 677 671 667 663 659 655 650 648 647 642 648 655
817 820 817 814 810 780 764 761 767 774 761 750 751 752 754 750 743 730 725 720 722 720 714 710 706 701 695 691 688 684 678 673 669 665 659 655 650 647 641 639 638 634 641 645
806 813 816 810 811 797 757 763 766 753 751 749 749 747 747 741 735 728 722 718 712 709 704 703 699 691 686 685 682 675 669 664 660 657 652 646 640 636 631 629 629 633 636 644
803 794 791 788 772 761 759 760 756 756 754 746 747 739 739 734 727 721 713 710 706 701 696 693 690 684 677 674 673 668 660 658 653 649 643 637 632 628 623 622 624 629 634 634
792 789 786 780 766 753 752 753 753 749 748 743 740 735 730 727 719 712 705 700 697 692 687 684 680 676 669 665 663 660 654 651 646 640 635 630 626 621 617 615 617 620 626 633
785 784 776 769 762 756 750 752 747 740 741 737 731 728 721 719 710 705 696 691 688 682 677 676 671 667 660 658 654 652 648 644 639 634 629 625 621 617 615 613 614 615 619 619
776 770 775 760 754 753 741 743 745 739 733 729 726 716 714 714 705 696 687 681 678 673 669 665 662 660 654 652 647 645 642 639 634 629 625 622 617 615 614 612 615 618 620 622